Powrót do katalogu

STARLINK-31793

AktywnyŁącznośćVLEO
NORAD 60053·PAYLOAD·🇺🇸 United States

Wystrzelony Jun 8, 2024 z Vandenberg Space Force Base

Loading…

Następne Przeloty (najbliższe 24 godziny)

TLE

ŚwieżeSource: CelesTrak SupGP

Epoka: Sep 15, 2026, 02:11 UTC

1 60053C 24112R   26258.09145833  .00009373  00000+0  27690-3 0  2586
2 60053  53.1566 276.6740 0001326  90.0810  33.6379 15.34388579    19

Śledź STARLINK-31793 w czasie rzeczywistym z AllMySat

Download on the App Store